Regional Weather Roundup
Issued by NWS

Home | Current Version | Previous Version | Graphics & Text | Print | Product List | Glossary On
Versions: 1 2 3 4 5 6 7 8 9 10 11 12 13 14 15 16 17 18 19 20 21 22 23 24 25 26 27 28 29 30 31 32 33 34 35 36 37 38 39 40 41 42 43 44 45 46 47 48 49 50
000
ASUS43 KDTX 221801
RWRMI
MICHIGAN HOURLY REGIONAL WEATHER ROUNDUP
NATIONAL WEATHER SERVICE DETROIT/PONTIAC MI
100 PM EST MON DEC 22 2014

NOTE: "FAIR" INDICATES FEW OR NO CLOUDS BELOW 12,000 FEET WITH NO
SIGNIFICANT WEATHER AND/OR OBSTRUCTION TO VISIBILITY.

MIZ047>049-052>055-059>063-066>070-074>076-081>083-221900-
SOUTHEAST LOWER MICHIGAN

CITY           SKY/WX    TMP DP  RH WIND       PRES   REMARKS
ADRIAN         CLOUDY    36  29  75 SE13      29.97F WCI  27
6HR MIN TEMP:  24; 6HR MAX TEMP:  36;

ALMA           MOSUNNY   35  28  75 E8        29.97F WCI  29
ANN ARBOR      PTSUNNY   38  29  70 E9        29.99F WCI  31
BAD AXE        CLOUDY    33  28  81 SE7       30.04F WCI  27
6HR MIN TEMP:  28; 6HR MAX TEMP:  33;

CARO           SUNNY     38  27  65 SE9       30.01F WCI  31
DETROIT CITY   MOSUNNY   39  30  70 E8        30.01F WCI  33
6HR MIN TEMP:  24; 6HR MAX TEMP:  39;

DETROIT        CLOUDY    39  30  70 E6        30.01F WCI  35
6HR MIN TEMP:  26; 6HR MAX TEMP:  39;

FLINT          SUNNY     40  26  57 E9        29.98F WCI  34
6HR MIN TEMP:  24; 6HR MAX TEMP:  41;

GROSSE ILE     PTSUNNY   39  30  70 E7        30.00S WCI  34
HILLSDALE      CLOUDY    36  30  78 SE12      29.93F WCI  28
6HR MIN TEMP:  24; 6HR MAX TEMP:  36;

HOWELL         MOSUNNY   37  28  69 SE9       29.96F WCI  30
6HR MIN TEMP:  24; 6HR MAX TEMP:  37;


CITY           SKY/WX    TMP DP  RH WIND       PRES   REMARKS
JACKSON        CLOUDY    36  28  73 SE13      29.94F WCI  27
6HR MIN TEMP:  24; 6HR MAX TEMP:  36;

LAMBERTVILLE   MOSUNNY   37  30  75 E5        29.98F WCI  34
LANSING        PTSUNNY   37  27  67 SE12      29.95F WCI  29
6HR MIN TEMP:  27; 6HR MAX TEMP:  37;

LAPEER         FAIR      37  27  68 E5        30.00F WCI  33
MASON          CLOUDY    36  28  72 E8        29.95F WCI  29
MONROE         PTSUNNY   37  30  75 E8        29.99S WCI  31
PONTIAC        PTSUNNY   36  27  69 E9        29.98F WCI  29
6HR MIN TEMP:  25; 6HR MAX TEMP:  37;

PORT HOPE        N/A     34  25  69 S6        30.04F WCI  29
6HR MIN TEMP:  30; 6HR MAX TEMP:  34;

PORT HURON     SUNNY     37  30  75 E7        30.03F WCI  32
TRI CITIES     SUNNY     38  26  62 E7        30.01F WCI  33
6HR MIN TEMP:  27; 6HR MAX TEMP:  38;

TROY           MOSUNNY   37  30  73 E9        30.02F WCI  31
SAGINAW HB     SUNNY     37  28  70 SE8       30.01F WCI  31
$$
MIZ043>046-050>051-056>058-064>065-071>073-077>080-221900-
SOUTHWEST LOWER MICHIGAN

CITY           SKY/WX    TMP DP  RH WIND       PRES   REMARKS
BATTLE CREEK   CLOUDY    37  27  67 SE9       29.92F WCI  30
6HR MIN TEMP:  27; 6HR MAX TEMP:  37;

BENTON HARBOR  CLOUDY    34  28  79 SE12      29.87F HAZE    WCI  25
6HR MIN TEMP:  27; 6HR MAX TEMP:  34;

BIG RAPIDS     PTSUNNY   33  29  84 E8        29.93F WCI  27
6HR MIN TEMP:  28; 6HR MAX TEMP:  34;

COLDWATER      CLOUDY    35  28  75 MISG      29.92F
6HR MIN TEMP:  25; 6HR MAX TEMP:  35;

FREMONT        CLOUDY    35  26  69 E10       29.91F WCI  28
HOLLAND        CLOUDY    36  27  69 E12       29.90F WCI  28
6HR MIN TEMP:  29; 6HR MAX TEMP:  36;

GRAND RAPIDS   PTSUNNY   36  27  69 SE14      29.93F WCI  27
6HR MIN TEMP:  26; 6HR MAX TEMP:  36;

IONIA          MOCLDY    38  29  69 E12       29.93F WCI  30
KALAMAZOO      CLOUDY    36  27  69 SE8       29.92F WCI  30
6HR MIN TEMP:  26; 6HR MAX TEMP:  36;

LUDINGTON      CLOUDY    37  28  70 SE12G17   29.91F WCI  29
6HR MIN TEMP:  31; 6HR MAX TEMP:  37;

MARSHALL       CLOUDY    36  29  75 SE8       29.93F WCI  29
MOUNT PLEASANT SUNNY     37  26  64 E9        29.96F WCI  30
6HR MIN TEMP:  23; 6HR MAX TEMP:  37;

MUSKEGON       CLOUDY    37  26  64 E12       29.91F WCI  29
6HR MIN TEMP:  28; 6HR MAX TEMP:  37;

SOUTH HAVEN    CLOUDY    36  28  73 SE9       29.88F WCI  29
$$
MIZ016>042-221900-
NORTHERN LOWER MICHIGAN

CITY           SKY/WX    TMP DP  RH WIND       PRES   REMARKS
ALPENA         PTSUNNY   34  27  75 SE10      30.04F WCI  26
6HR MIN TEMP:  28; 6HR MAX TEMP:  34;

BEAVER ISLAND  MOSUNNY   34  27  74 SE12G20   29.96F WCI  26
6HR MIN TEMP:  32; 6HR MAX TEMP:  35;

BELLAIRE       MOSUNNY   36  25  65 SE6       29.97F WCI  31
6HR MIN TEMP:  31; 6HR MAX TEMP:  36;

CADILLAC       SUNNY     31  25  76 E9G16     29.93F WCI  23
CHARLEVOIX     MOSUNNY   35  25  67 SE13      29.99F WCI  26
6HR MIN TEMP:  30; 6HR MAX TEMP:  35;

FRANKFORT      MOSUNNY   37  26  66 SE9       29.92F WCI  30
GAYLORD        SUNNY     31  24  75 SE14      29.96F WCI  21
6HR MIN TEMP:  25; 6HR MAX TEMP:  31;

GRAYLING       SUNNY     33  25  73 SE12      29.98F WCI  24
6HR MIN TEMP:  27; 6HR MAX TEMP:  33;

HARBOR SPRINGS MOSUNNY   34  25  69 E10       29.98F WCI  26
HOUGHTON LAKE  SUNNY     32  24  72 SE12      29.98F WCI  23
6HR MIN TEMP:  25; 6HR MAX TEMP:  32;

MANISTEE       MOSUNNY   36  25  64 SE12G17   29.92F WCI  27
OSCODA         CLOUDY    33  26  77 SE5       30.05F WCI  28
PELLSTON       MOSUNNY   33  25  72 SE12      29.99F WCI  24
6HR MIN TEMP:  29; 6HR MAX TEMP:  33;

ROGERS CITY    PTSUNNY   34  29  82 SE12      30.05F WCI  25
TRAVERSE CITY  MOSUNNY   37  25  61 SE10G16   29.94F WCI  30
6HR MIN TEMP:  30; 6HR MAX TEMP:  37;

$$
MIZ007>008-015-221900-
EASTERN UPPER MICHIGAN

CITY           SKY/WX    TMP DP  RH WIND       PRES   REMARKS
KINROSS        CLOUDY    34  30  86 SE17G24   30.01F WCI  23
6HR MIN TEMP:  30; 6HR MAX TEMP:  34;

MACKINAC ISLAN PTSUNNY   33  26  75 SE14G20   29.99F WCI  23
6HR MIN TEMP:  31; 6HR MAX TEMP:  33;

NEWBERRY       CLOUDY    32  27  83 SE13G20   29.96F WCI  22
S. S. MARIE    CLOUDY    34  28  79 SE13      30.01F WCI  25
6HR MIN TEMP:  31; 6HR MAX TEMP:  34; 6HR PCP: TRACE;

MUNISING         N/A     36  30  79 S9        29.91F WCI  29
6HR MIN TEMP:  36; 6HR MAX TEMP:  36;

$$
MIZ004>006-011>014-085-221900-
CENTRAL UPPER MICHIGAN

CITY           SKY/WX    TMP DP  RH WIND       PRES   REMARKS
MANISTIQUE     CLOUDY    34  32  90 SE12      29.95F FOG     WCI  26
6HR MIN TEMP:  34; 6HR MAX TEMP:  35;

ESCANABA       CLOUDY    36  30  80 S9        29.90F WCI  29
6HR MIN TEMP:  34; 6HR MAX TEMP:  36;

MENOMINEE      CLOUDY    36  32  87 S12       29.87F WCI  27
6HR MIN TEMP:  36; 6HR MAX TEMP:  36;

SAWYER-GWINN   FOG       32  32 100 S13       29.86F VSB 1   WCI  22
$$
MIZ001>003-009>011-084-221900-
WESTERN UPPER MICHIGAN

CITY           SKY/WX    TMP DP  RH WIND       PRES   REMARKS
IRON MOUNTAIN  CLOUDY    34  32  92 SE7       29.83F FOG     WCI  28
6HR MIN TEMP:  33; 6HR MAX TEMP:  34; 6HR PCP: TRACE;

HOUGHTON       CLOUDY    34  32  92 SE7       29.79F FOG     WCI  28
6HR MIN TEMP:  32; 6HR MAX TEMP:  35; 6HR PCP:  0.01;

COPPER HARBOR    N/A     37  33  85 SW7       29.83F WCI  32
6HR MIN TEMP:  35; 6HR MAX TEMP:  38; 6HR PCP:  0.02;

IRONWOOD       CLOUDY    36  32  87 SE8       29.71F WCI  29
6HR MIN TEMP:  34; 6HR MAX TEMP:  36;

$$

ABBREVIATIONS USED IN REMARKS
   TC - TEMPERATURE IN CELSIUS
  WCI - WIND CHILL INDEX
   HX - HEAT INDEX
  VSB - VISIBILITY



USA.gov is the U.S. government's official web portal to all federal, state and local government web resources and services.